This is the latest recevied weather packets stored in our database for station/object EA8DNP-14. If no packets are shown the sender has not sent any weather packets the latest 10 day(s).
| Time | Temp. | Humidity | Pressure | Rain* | Wind** | Luminosity | Snow |
|---|---|---|---|---|---|---|---|
| 1787577435 | 26.67° C | 44% | 904.6 hPa | - | - | - | - |
| 1787576535 | 26.11° C | 45% | 904.6 hPa | - | - | - | - |
| 1787575634 | 26.11° C | 45% | 904.6 hPa | - | - | - | - |
| 1787574734 | 25.56° C | 46% | 904.7 hPa | - | - | - | - |
| 1787573834 | 25.56° C | 45% | 904.7 hPa | - | - | - | - |
| 1787572934 | 25.56° C | 45% | 904.6 hPa | - | - | - | - |
| 1787572034 | 25.56° C | 44% | 904.7 hPa | - | - | - | - |
| 1787571134 | 26.11° C | 43% | 904.7 hPa | - | - | - | - |
| 1787570234 | 26.67° C | 42% | 904.6 hPa | - | - | - | - |
| 1787569334 | 26.67° C | 42% | 904.6 hPa | - | - | - | - |
| 1787568433 | 27.22° C | 40% | 904.6 hPa | - | - | - | - |
| 1787567533 | 27.22° C | 40% | 904.5 hPa | - | - | - | - |
| 1787566633 | 27.22° C | 40% | 904.6 hPa | - | - | - | - |
| 1787565733 | 26.67° C | 40% | 904.4 hPa | - | - | - | - |
| 1787564833 | 26.11° C | 40% | 904.3 hPa | - | - | - | - |
| 1787563933 | 25.56° C | 41% | 904.2 hPa | - | - | - | - |
| 1787563033 | 25.56° C | 39% | 904.1 hPa | - | - | - | - |
| 1787562133 | 25° C | 39% | 903.8 hPa | - | - | - | - |
| 1787561233 | 24.44° C | 37% | 903.8 hPa | - | - | - | - |
| 1787560332 | 24.44° C | 35% | 903.8 hPa | - | - | - | - |
| 1787559432 | 22.78° C | 35% | 903.7 hPa | - | - | - | - |
| 1787558532 | 21.11° C | 36% | 903.6 hPa | - | - | - | - |
| 1787557632 | 20° C | 36% | 903.6 hPa | - | - | - | - |
| 1787556732 | 17.22° C | 37% | 903.5 hPa | - | - | - | - |
| 1787555832 | 14.44° C | 39% | 903.3 hPa | - | - | - | - |
* Rain since midnight (hover to see other rain measurements)
** Current wind speed in m/s (hover to see current wind gust speed)